Regional Weather Roundup
Issued by NWS

Home | Current Version | Previous Version | Text Only | Print | Product List | Glossary Off
Versions: 1 2 3 4 5 6 7 8 9 10 11 12 13 14 15 16 17 18 19 20 21 22 23 24 25 26 27 28 29 30 31 32 33 34 35 36 37 38 39 40 41 42 43 44 45 46 47 48 49 50

000
ASUS43 KIND 021509
RWRIN

WEATHER ROUNDUP FOR INDIANA
NATIONAL WEATHER SERVICE INDIANAPOLIS IN
1000 AM EST MON MAR 02 2015

NOTE: "FAIR" INDICATES FEW OR NO CLOUDS BELOW 12,000 FEET WITH NO
SIGNIFICANT WEATHER AND/OR OBSTRUCTIONS TO VISIBILITY.

* - STATION DOES NOT REPORT WEATHER SUCH AS PRECIPITATION OR FOG.

+ - STATION NOT QUALITY CONTROLLED BY THE NATIONAL WEATHER SERVICE.
    USE DATA WITH CAUTION...ESPECIALLY DEWPOINT AND RELATIVE
    HUMIDITY OBSERVATIONS.

INZ001>003-010>013-019-020-021600-
NORTHWEST INDIANA

CITY           SKY/WX    TMP DP  RH WIND       PRES   REMARKS
GARY /AIRPORT/ MOSUNNY   21   9  58 W6        30.52R WCI  14
KNOX *+          N/A     14   0  52 SW5       30.51R WCI   6
LA PORTE +     SUNNY     23  15  71 NW7       30.50R WCI  14
MICHIGAN CITY+ SUNNY     23  12  63 W6        30.51R WCI  16
MONTICELLO +   SUNNY     14  10  84 CALM      30.52R
RENSSELAER +   SUNNY     12  12 100 SW3       30.52R
VALPARAISO     SUNNY     20  11  68 NW6       30.50R WCI  12

$$

LMZ046-743>745-021600-
SOUTHERN LAKE MICHIGAN

STATION/POSITION TIME  TEMP WIND        PRES
                       AIR  DIR/SP/G
                 (UTC) (F)  (DEG/KT/KT) (MB)
MICHIGAN CITY    1500   18  220/  8/  9   N/A

$$

INZ004-005-014>016-021>024-021600-
NORTH CENTRAL INDIANA

CITY           SKY/WX    TMP DP  RH WIND       PRES   REMARKS
ELKHART        SUNNY     21  12  68 SW6       30.49R WCI  14
GOSHEN         MOSUNNY   15  10  80 SW9       30.49R HAZE    WCI   3
LOGANSPORT +   SUNNY      9   5  85 SW6       30.53R FOG     WCI  -1
PERU/GRISSOM   SUNNY     11   7  86 SW6       30.50R WCI   1
ROCHESTER +    SUNNY     21  14  73 CALM      30.51R
SOUTH BEND     PTSUNNY   20  12  71 W7        30.50R WCI  11
WARSAW +       SUNNY     19  12  73 W5        30.49R WCI  13

$$

INZ006>009-017-018-025>027-021600-
NORTHEAST INDIANA

CITY           SKY/WX    TMP DP  RH WIND       PRES   REMARKS
ANGOLA *+      SUNNY     21   9  58 W9        30.45S WCI  11
FORT WAYNE     MOSUNNY   17  11  77 SW7       30.50R WCI   8
HUNTINGTON +   MOSUNNY   18   8  63 W6        30.50R WCI  10

$$

INZ028-029-035-036-043>045-051>053-021600-
WEST CENTRAL INDIANA

CITY           SKY/WX    TMP DP  RH WIND       PRES   REMARKS
CRAWFORDSVL +  MOSUNNY   15   6  65 CALM      30.53R
GREENCASTLE +  MOSUNNY   21  10  63 CALM      30.53R
LAFAYETTE      SUNNY     18  11  74 CALM      30.53R
TERRE HAUTE    MOSUNNY   20  14  77 CALM      30.55R

$$

INZ030>032-037>040-046>048-054>057-064-065-021600-
CENTRAL INDIANA

CITY           SKY/WX    TMP DP  RH WIND       PRES   REMARKS
ANDERSON       SUNNY     19  10  68 CALM      30.53R
CP ATTERBURY + MOSUNNY   27  14  59 N6        30.55S WCI  20
FRANKFORT +    MOSUNNY    9   6  87 CALM      30.53R
GREENWOOD *+   MOSUNNY   21   9  58 CALM      30.54R
INDIANAPOLIS   PTSUNNY   18  12  77 SW3       30.53R
-EAGLE CREEK   PTSUNNY   20  12  71 CALM      30.53R
KOKOMO *+      SUNNY     16  10  79 W7        30.52R WCI   6
MARION +       MOSUNNY   11   8  87 SW5       30.52R WCI   3
MT COMFORT *+  PTSUNNY   19   5  53 CALM      30.53R
SHELBYVILLE    MOSUNNY   22  12  65 CALM      30.53R
ZIONSVILLE +   MOSUNNY   20  11  66 NW3       30.52R

$$

INZ033-034-041-042-049-050-058-059-021600-
EAST CENTRAL INDIANA

CITY           SKY/WX    TMP DP  RH WIND       PRES   REMARKS
MUNCIE         MOSUNNY   18  10  71 W5        30.52R WCI  11

$$

INZ060-061-067>069-081>083-085>088-021600-
SOUTHWEST INDIANA

CITY           SKY/WX    TMP DP  RH WIND       PRES   REMARKS
EVANSVILLE     MOSUNNY   29  17  61 NE12      30.56S WCI  19
HUNTINGBURG *+ MOSUNNY   27  18  69 NE8       30.57R WCI  18
WASHINGTON +   MOSUNNY   24  14  67 CALM      30.56S

$$

INZ062-063-066-070>080-084-089>092-021600-
SOUTH CENTRAL AND SOUTHEAST INDIANA

CITY           SKY/WX    TMP DP  RH WIND       PRES   REMARKS
BLOOMINGTON    MOSUNNY   25  14  63 N3        30.52S
NORTH VERNON + MOSUNNY   25  14  63 E3        30.55R
SEYMOUR +      MOSUNNY   27  14  59 NE6       30.56R WCI  20

$$




USA.gov is the U.S. government's official web portal to all federal, state and local government web resources and services.